| time (UTC) | temp F | wind direction | speed MPH | gust MPH | rain 1hr in | rain 24hr in | rain mn in | humidity % | barometer mb |
| 20260505021546 | 70 | 153 | 0.0 | 0.0 | 0.00 | 0.00 | 0.00 | 65 | 1004.9 |
| 20260505020046 | 70 | 153 | 0.0 | 0.0 | 0.00 | 0.00 | 0.00 | 64 | 1004.8 |
| 20260505014601 | 70 | 153 | 0.0 | 0.0 | 0.00 | 0.00 | 0.00 | 64 | 1004.7 |
| 20260505013043 | 71 | 153 | 0.0 | 0.0 | 0.00 | 0.00 | 0.00 | 64 | 1004.4 |
| 20260505011542 | 71 | 153 | 0.0 | 0.0 | 0.00 | 0.00 | 0.00 | 64 | 1004.3 |
| 20260505010042 | 72 | 153 | 0.0 | 1.0 | 0.00 | 0.00 | 0.00 | 62 | 1004.3 |
| 20260505004543 | 72 | 175 | 0.0 | 0.0 | 0.00 | 0.00 | 0.00 | 62 | 1004.2 |
| 20260505003039 | 73 | 180 | 0.0 | 0.0 | 0.00 | 0.00 | 0.00 | 61 | 1004.1 |
| 20260505001542 | 74 | 180 | 0.0 | 2.0 | 0.00 | 0.00 | 0.00 | 59 | 1004.1 |
| 20260505000046 | 74 | 184 | 0.0 | 1.0 | 0.00 | 0.00 | 0.00 | 58 | 1004.2 |
| 20260504234541 | 75 | 175 | 0.0 | 2.0 | 0.00 | 0.00 | 0.00 | 57 | 1004.3 |
| 20260504233033 | 76 | 170 | 1.0 | 4.0 | 0.00 | 0.00 | 0.00 | 56 | 1004.4 |
| 20260504231536 | 76 | 153 | 1.0 | 3.0 | 0.00 | 0.00 | 0.00 | 55 | 1004.5 |
| 20260504230030 | 77 | 180 | 0.0 | 4.0 | 0.00 | 0.00 | 0.00 | 53 | 1004.8 |
| 20260504224610 | 77 | 184 | 1.0 | 4.0 | 0.00 | 0.00 | 0.00 | 52 | 1004.8 |
| 20260504223059 | 77 | 186 | 0.0 | 4.0 | 0.00 | 0.00 | 0.00 | 51 | 1005.0 |
| 20260504221529 | 78 | 246 | 0.0 | 5.0 | 0.00 | 0.00 | 0.00 | 50 | 1004.9 |
| 20260504220026 | 78 | 234 | 1.0 | 6.0 | 0.00 | 0.00 | 0.00 | 49 | 1005.1 |
| 20260504214523 | 78 | 175 | 1.0 | 5.0 | 0.00 | 0.00 | 0.00 | 49 | 1005.3 |
| 20260504213043 | 78 | 210 | 2.0 | 10.0 | 0.00 | 0.00 | 0.00 | 49 | 1005.4 |
| 20260504211519 | 78 | 236 | 2.0 | 12.0 | 0.00 | 0.00 | 0.00 | 48 | 1005.5 |
| 20260504210020 | 78 | 195 | 0.0 | 9.0 | 0.00 | 0.00 | 0.00 | 50 | 1005.8 |
| 20260504204514 | 79 | 186 | 4.0 | 15.0 | 0.00 | 0.00 | 0.00 | 49 | 1005.9 |
| 20260504203012 | 79 | 218 | 1.0 | 6.0 | 0.00 | 0.00 | 0.00 | 48 | 1006.1 |
| 20260504201517 | 79 | 232 | 0.0 | 5.0 | 0.00 | 0.00 | 0.00 | 48 | 1006.5 |
| 20260504200007 | 78 | 147 | 1.0 | 6.0 | 0.00 | 0.00 | 0.00 | 48 | 1006.8 |
| 20260504194504 | 78 | 241 | 2.0 | 11.0 | 0.00 | 0.00 | 0.00 | 47 | 1007.0 |
| 20260504193002 | 78 | 180 | 0.0 | 10.0 | 0.00 | 0.00 | 0.00 | 50 | 1007.1 |
| 20260504191603 | 78 | 194 | 1.0 | 10.0 | 0.00 | 0.00 | 0.00 | 48 | 1007.3 |
| 20260504190116 | 78 | 196 | 2.0 | 10.0 | 0.00 | 0.00 | 0.00 | 50 | 1007.4 |
| 20260504184606 | 77 | 207 | 2.0 | 10.0 | 0.00 | 0.00 | 0.00 | 50 | 1007.6 |
| 20260504183054 | 78 | 188 | 1.0 | 6.0 | 0.00 | 0.00 | 0.00 | 50 | 1007.8 |
| 20260504181551 | 77 | 230 | 1.0 | 10.0 | 0.00 | 0.00 | 0.00 | 50 | 1007.8 |
| 20260504180050 | 77 | 224 | 1.0 | 6.0 | 0.00 | 0.00 | 0.00 | 49 | 1007.9 |
| 20260504174555 | 77 | 224 | 2.0 | 12.0 | 0.00 | 0.00 | 0.00 | 50 | 1008.1 |
| 20260504173050 | 76 | 180 | 2.0 | 7.0 | 0.00 | 0.00 | 0.00 | 51 | 1008.3 |
| 20260504171541 | 76 | 226 | 1.0 | 9.0 | 0.00 | 0.00 | 0.00 | 51 | 1008.5 |
| 20260504090111 | 62 | 191 | 0.0 | 0.0 | 0.00 | 0.00 | 0.00 | 70 | 1009.9 |
| 20260504081538 | 66 | 202 | 0.0 | 0.0 | 0.00 | 0.00 | 0.00 | 65 | 1010.0 |
| 20260504070127 | 68 | 222 | 0.0 | 0.0 | 0.00 | 0.00 | 0.00 | 62 | 1010.4 |
| 20260504050014 | 70 | 227 | 0.0 | 2.0 | 0.00 | 0.00 | 0.00 | 60 | 1010.8 |
| 20260504044515 | 70 | 219 | 0.0 | 1.0 | 0.00 | 0.00 | 0.00 | 61 | 1011.0 |
| 20260504043005 | 70 | 222 | 0.0 | 2.0 | 0.00 | 0.00 | 0.00 | 61 | 1011.0 |
| 20260504041502 | 70 | 221 | 0.0 | 1.0 | 0.00 | 0.00 | 0.00 | 61 | 1011.0 |
| 20260504040002 | 70 | 224 | 0.0 | 1.0 | 0.00 | 0.00 | 0.00 | 61 | 1011.1 |
| 20260504034604 | 70 | 213 | 0.0 | 1.0 | 0.00 | 0.00 | 0.00 | 62 | 1011.2 |
| 20260504033114 | 69 | 209 | 0.0 | 0.0 | 0.00 | 0.00 | 0.00 | 63 | 1011.3 |
| 20260504031557 | 69 | 206 | 0.0 | 0.0 | 0.00 | 0.00 | 0.00 | 64 | 1011.3 |
| 20260504030055 | 68 | 185 | 0.0 | 0.0 | 0.00 | 0.00 | 0.00 | 65 | 1011.2 |
| 20260504024555 | 69 | 191 | 0.0 | 0.0 | 0.00 | 0.00 | 0.00 | 64 | 1011.2 |
| 20260504023052 | 70 | 188 | 0.0 | 0.0 | 0.00 | 0.00 | 0.00 | 62 | 1011.1 |